SP6FIG-13 Weather Reports


Display with metric or nautical units.
time (UTC)temp
F
wind
direction
speed
MPH
gust
MPH
rain 1hr
in
rain 24hr
in
rain mn
in
humidity
%
barometer
mb
20260905160627 77 0.0 0.0 0.00 0.00 0.00 45 1019.9
20260905160127 77 0.0 0.0 0.00 0.00 0.00 45 1019.5
20260905155627 78 0.0 0.0 0.00 0.00 0.00 44 1019.5
20260905155127 77 0.0 0.0 0.00 0.00 0.00 45 1019.3
20260905154627 77 0.0 0.0 0.00 0.00 0.00 44 1019.3
20260905154127 77 0.0 0.0 0.00 0.00 0.00 43 1019.5
20260905153627 77 0.0 0.0 0.00 0.00 0.00 43 1019.5
20260905153127 77 0.0 0.0 0.00 0.00 0.00 43 1019.6
20260905152627 78 0.0 0.0 0.00 0.00 0.00 43 1019.3
20260905152127 78 0.0 0.0 0.00 0.00 0.00 42 1019.0
20260905151627 77 0.0 0.0 0.00 0.00 0.00 42 1019.1
20260905151127 77 0.0 0.0 0.00 0.00 0.00 42 1019.3
20260905150647 77 0.0 0.0 0.00 0.00 0.00 39 1019.9
20260905150127 77 0.0 0.0 0.00 0.00 0.00 40 1019.2
20260905145627 77 0.0 0.0 0.00 0.00 0.00 39 1019.5
20260905145127 77 0.0 0.0 0.00 0.00 0.00 40 1018.9
20260905144627 77 0.0 0.0 0.00 0.00 0.00 38 1018.6
20260905144127 77 0.0 0.0 0.00 0.00 0.00 41 1019.4
20260905143627 77 0.0 0.0 0.00 0.00 0.00 40 1019.3
20260905143127 77 0.0 0.0 0.00 0.00 0.00 39 1019.1
20260905142627 77 0.0 0.0 0.00 0.00 0.00 40 1018.8
20260905142127 76 0.0 0.0 0.00 0.00 0.00 41 1019.4
20260905141627 76 0.0 0.0 0.00 0.00 0.00 42 1019.1
20260905141127 76 0.0 0.0 0.00 0.00 0.00 42 1018.3
20260905140627 75 0.0 0.0 0.00 0.00 0.00 41 1019.3
20260905140127 75 0.0 0.0 0.00 0.00 0.00 41 1019.2
20260905135627 75 0.0 0.0 0.00 0.00 0.00 41 1019.2
20260905135127 75 0.0 0.0 0.00 0.00 0.00 40 1019.2
20260905134627 75 0.0 0.0 0.00 0.00 0.00 39 1019.5
20260905134127 75 0.0 0.0 0.00 0.00 0.00 39 1019.1
20260905133627 75 0.0 0.0 0.00 0.00 0.00 40 1019.1
20260905133127 75 0.0 0.0 0.00 0.00 0.00 40 1019.5
20260905132627 76 0.0 0.0 0.00 0.00 0.00 40 1019.0
20260905132127 76 0.0 0.0 0.00 0.00 0.00 38 1019.1
20260905131627 76 0.0 0.0 0.00 0.00 0.00 40 1019.1
20260905131127 75 0.0 0.0 0.00 0.00 0.00 43 1019.5
20260905130627 76 0.0 0.0 0.00 0.00 0.00 41 1018.9
20260905130127 75 0.0 0.0 0.00 0.00 0.00 38 1019.1
20260905125627 75 0.0 0.0 0.00 0.00 0.00 38 1019.4
20260905125127 75 0.0 0.0 0.00 0.00 0.00 42 1019.1
20260905124627 75 0.0 0.0 0.00 0.00 0.00 41 1019.2
20260905124127 75 0.0 0.0 0.00 0.00 0.00 40 1019.3
20260905123627 75 0.0 0.0 0.00 0.00 0.00 41 1019.4
20260905123127 75 0.0 0.0 0.00 0.00 0.00 40 1019.1
20260905122627 75 0.0 0.0 0.00 0.00 0.00 42 1018.8
20260905122127 74 0.0 0.0 0.00 0.00 0.00 38 1019.7
20260905121627 74 0.0 0.0 0.00 0.00 0.00 38 1020.1
20260905121127 75 0.0 0.0 0.00 0.00 0.00 38 1019.5
20260905120627 75 0.0 0.0 0.00 0.00 0.00 39 1019.8
20260905120127 75 0.0 0.0 0.00 0.00 0.00 38 1020.2
20260905115627 76 0.0 0.0 0.00 0.00 0.00 39 1019.0
20260905115127 75 0.0 0.0 0.00 0.00 0.00 39 1019.7
20260905114627 75 0.0 0.0 0.00 0.00 0.00 39 1019.6
20260905114127 75 0.0 0.0 0.00 0.00 0.00 39 1019.2
20260905113627 75 0.0 0.0 0.00 0.00 0.00 40 1019.8
20260905113127 75 0.0 0.0 0.00 0.00 0.00 43 1019.8
20260905112627 75 0.0 0.0 0.00 0.00 0.00 44 1019.5
20260905112127 75 0.0 0.0 0.00 0.00 0.00 44 1019.4
20260905111627 75 0.0 0.0 0.00 0.00 0.00 45 1019.6
20260905111127 75 0.0 0.0 0.00 0.00 0.00 42 1019.3
20260905110637 75 0.0 0.0 0.00 0.00 0.00 40 1019.8
20260905110127 75 0.0 0.0 0.00 0.00 0.00 40 1019.8
20260905105630 75 0.0 0.0 0.00 0.00 0.00 43 1019.6
20260905105127 75 0.0 0.0 0.00 0.00 0.00 40 1019.3
20260905104627 75 0.0 0.0 0.00 0.00 0.00 40 1019.5
20260905104137 75 0.0 0.0 0.00 0.00 0.00 40 1019.7
20260905103627 75 0.0 0.0 0.00 0.00 0.00 41 1019.5
20260905103127 75 0.0 0.0 0.00 0.00 0.00 42 1019.4
20260905102627 75 0.0 0.0 0.00 0.00 0.00 41 1019.1
20260905102127 74 0.0 0.0 0.00 0.00 0.00 41 1019.4
20260905101627 74 0.0 0.0 0.00 0.00 0.00 42 1019.3
20260905101127 74 0.0 0.0 0.00 0.00 0.00 42 1019.2
20260905100627 74 0.0 0.0 0.00 0.00 0.00 42 1019.2
20260905100127 74 0.0 0.0 0.00 0.00 0.00 41 1019.3
20260905095627 74 0.0 0.0 0.00 0.00 0.00 42 1019.5
20260905095127 74 0.0 0.0 0.00 0.00 0.00 42 1019.5
20260905094627 74 0.0 0.0 0.00 0.00 0.00 42 1019.5
20260905094127 74 0.0 0.0 0.00 0.00 0.00 42 1019.4
20260905093627 74 0.0 0.0 0.00 0.00 0.00 43 1019.5
20260905093127 74 0.0 0.0 0.00 0.00 0.00 43 1019.6
20260905092627 74 0.0 0.0 0.00 0.00 0.00 43 1019.6
20260905092127 74 0.0 0.0 0.00 0.00 0.00 43 1019.3
20260905091627 74 0.0 0.0 0.00 0.00 0.00 43 1019.4
20260905091127 74 0.0 0.0 0.00 0.00 0.00 43 1019.4
20260905090627 74 0.0 0.0 0.00 0.00 0.00 44 1019.6
20260905090127 74 0.0 0.0 0.00 0.00 0.00 44 1019.5
20260905085627 74 0.0 0.0 0.00 0.00 0.00 44 1019.1
20260905085127 74 0.0 0.0 0.00 0.00 0.00 44 1019.4
20260905084627 74 0.0 0.0 0.00 0.00 0.00 44 1019.0
20260905084127 73 0.0 0.0 0.00 0.00 0.00 45 1019.1
20260905083627 73 0.0 0.0 0.00 0.00 0.00 46 1019.4
20260905083127 73 0.0 0.0 0.00 0.00 0.00 46 1019.4
20260905082627 73 0.0 0.0 0.00 0.00 0.00 46 1019.7
20260905082127 73 0.0 0.0 0.00 0.00 0.00 46 1019.3
20260905081627 73 0.0 0.0 0.00 0.00 0.00 46 1019.3
20260905081127 73 0.0 0.0 0.00 0.00 0.00 46 1019.1
20260905080627 73 0.0 0.0 0.00 0.00 0.00 46 1019.1
20260905080127 73 0.0 0.0 0.00 0.00 0.00 46 1019.0
20260905075627 73 0.0 0.0 0.00 0.00 0.00 46 1019.6
20260905075127 73 0.0 0.0 0.00 0.00 0.00 46 1019.1
20260905074627 73 0.0 0.0 0.00 0.00 0.00 47 1019.0
20260905074127 73 0.0 0.0 0.00 0.00 0.00 47 1019.2
20260905073627 73 0.0 0.0 0.00 0.00 0.00 46 1019.4
20260905073127 73 0.0 0.0 0.00 0.00 0.00 46 1019.6
20260905072627 74 0.0 0.0 0.00 0.00 0.00 47 1018.7
20260905072127 74 0.0 0.0 0.00 0.00 0.00 46 1019.2
20260905071627 74 0.0 0.0 0.00 0.00 0.00 46 1019.0
20260905071127 74 0.0 0.0 0.00 0.00 0.00 47 1019.3
20260905070627 74 0.0 0.0 0.00 0.00 0.00 46 1018.8
20260905070127 74 0.0 0.0 0.00 0.00 0.00 46 1018.7
20260905065627 74 0.0 0.0 0.00 0.00 0.00 47 1018.7
20260905065127 74 0.0 0.0 0.00 0.00 0.00 47 1019.0
20260905064627 74 0.0 0.0 0.00 0.00 0.00 47 1018.7
20260905064127 74 0.0 0.0 0.00 0.00 0.00 48 1018.5
20260905063627 74 0.0 0.0 0.00 0.00 0.00 48 1018.5
20260905063128 74 0.0 0.0 0.00 0.00 0.00 48 1018.4
20260905062627 74 0.0 0.0 0.00 0.00 0.00 48 1018.2
20260905062127 74 0.0 0.0 0.00 0.00 0.00 48 1018.5
20260905061627 74 0.0 0.0 0.00 0.00 0.00 48 1018.4
20260905061127 74 0.0 0.0 0.00 0.00 0.00 48 1018.4
20260905060627 74 0.0 0.0 0.00 0.00 0.00 48 1018.3
20260905060126 74 0.0 0.0 0.00 0.00 0.00 48 1018.4
20260905055627 74 0.0 0.0 0.00 0.00 0.00 49 1017.8
20260905055126 74 0.0 0.0 0.00 0.00 0.00 49 1018.1
20260905054627 73 0.0 0.0 0.00 0.00 0.00 49 1017.8
20260905054126 73 0.0 0.0 0.00 0.00 0.00 50 1017.0
20260905053626 72 0.0 0.0 0.00 0.00 0.00 49 1019.4
20260905053127 73 0.0 0.0 0.00 0.00 0.00 50 1017.8
20260905052626 73 0.0 0.0 0.00 0.00 0.00 50 1017.8
20260905052126 73 0.0 0.0 0.00 0.00 0.00 50 1017.9
20260905051627 74 0.0 0.0 0.00 0.00 0.00 50 1017.4
20260905051126 73 0.0 0.0 0.00 0.00 0.00 51 1017.4
20260905050626 73 0.0 0.0 0.00 0.00 0.00 52 1017.2
20260905050126 73 0.0 0.0 0.00 0.00 0.00 51 1017.8
20260905045626 73 0.0 0.0 0.00 0.00 0.00 50 1017.5
20260905045126 73 0.0 0.0 0.00 0.00 0.00 50 1017.9
20260905044626 74 0.0 0.0 0.00 0.00 0.00 49 1017.5
20260905044126 74 0.0 0.0 0.00 0.00 0.00 50 1017.4
20260905043626 74 0.0 0.0 0.00 0.00 0.00 50 1017.9
20260905043126 75 0.0 0.0 0.00 0.00 0.00 50 1016.9
20260905042626 75 0.0 0.0 0.00 0.00 0.00 50 1016.8
20260905042126 75 0.0 0.0 0.00 0.00 0.00 50 1016.8
20260905041626 75 0.0 0.0 0.00 0.00 0.00 50 1016.7
20260905041126 75 0.0 0.0 0.00 0.00 0.00 50 1016.9
20260905040626 75 0.0 0.0 0.00 0.00 0.00 49 1016.7
20260905040126 75 0.0 0.0 0.00 0.00 0.00 50 1016.7
20260905035626 75 0.0 0.0 0.00 0.00 0.00 50 1016.6
20260905035127 75 0.0 0.0 0.00 0.00 0.00 50 1016.5
20260905034626 75 0.0 0.0 0.00 0.00 0.00 50 1016.6
20260905034126 75 0.0 0.0 0.00 0.00 0.00 50 1016.6
20260905033626 75 0.0 0.0 0.00 0.00 0.00 50 1016.6
20260905033126 75 0.0 0.0 0.00 0.00 0.00 50 1016.6
20260905032626 75 0.0 0.0 0.00 0.00 0.00 50 1016.5
20260905032126 75 0.0 0.0 0.00 0.00 0.00 50 1016.3
20260905031626 75 0.0 0.0 0.00 0.00 0.00 50 1016.7
20260905031126 75 0.0 0.0 0.00 0.00 0.00 50 1016.5
20260905030626 75 0.0 0.0 0.00 0.00 0.00 50 1016.2
20260905030126 75 0.0 0.0 0.00 0.00 0.00 50 1016.3
20260905025626 75 0.0 0.0 0.00 0.00 0.00 50 1016.1
20260905025126 75 0.0 0.0 0.00 0.00 0.00 50 1016.1
20260905024626 75 0.0 0.0 0.00 0.00 0.00 50 1016.0
20260905024126 75 0.0 0.0 0.00 0.00 0.00 50 1015.8
20260905023626 75 0.0 0.0 0.00 0.00 0.00 50 1015.7
20260905023126 75 0.0 0.0 0.00 0.00 0.00 50 1015.5
20260905022626 75 0.0 0.0 0.00 0.00 0.00 50 1015.5
20260905022126 75 0.0 0.0 0.00 0.00 0.00 50 1015.5
20260905021626 75 0.0 0.0 0.00 0.00 0.00 51 1015.5
20260905021126 75 0.0 0.0 0.00 0.00 0.00 50 1015.2
20260905020626 75 0.0 0.0 0.00 0.00 0.00 50 1015.1
20260905020126 75 0.0 0.0 0.00 0.00 0.00 50 1014.6
20260905015626 75 0.0 0.0 0.00 0.00 0.00 51 1015.1
20260905015126 75 0.0 0.0 0.00 0.00 0.00 51 1014.9
20260905014626 75 0.0 0.0 0.00 0.00 0.00 51 1015.0
20260905014126 75 0.0 0.0 0.00 0.00 0.00 51 1014.5
20260905013626 75 0.0 0.0 0.00 0.00 0.00 51 1014.9
20260905013126 75 0.0 0.0 0.00 0.00 0.00 51 1015.1
20260905012626 75 0.0 0.0 0.00 0.00 0.00 51 1015.3
20260905012126 75 0.0 0.0 0.00 0.00 0.00 51 1015.2
20260905011626 75 0.0 0.0 0.00 0.00 0.00 51 1015.2
20260905011126 75 0.0 0.0 0.00 0.00 0.00 51 1015.0
20260905010626 75 0.0 0.0 0.00 0.00 0.00 51 1015.2
20260905010126 75 0.0 0.0 0.00 0.00 0.00 51 1015.1
20260905005626 75 0.0 0.0 0.00 0.00 0.00 51 1015.0
20260905005126 75 0.0 0.0 0.00 0.00 0.00 51 1014.8
20260905004626 75 0.0 0.0 0.00 0.00 0.00 52 1014.9
20260905004126 75 0.0 0.0 0.00 0.00 0.00 51 1015.1
20260905003626 75 0.0 0.0 0.00 0.00 0.00 51 1015.3
20260905003126 75 0.0 0.0 0.00 0.00 0.00 51 1015.3
20260905002626 75 0.0 0.0 0.00 0.00 0.00 52 1015.3
20260905002126 75 0.0 0.0 0.00 0.00 0.00 52 1015.3
20260905001626 75 0.0 0.0 0.00 0.00 0.00 52 1015.4
20260905001126 75 0.0 0.0 0.00 0.00 0.00 51 1015.5
20260905000626 75 0.0 0.0 0.00 0.00 0.00 52 1015.3
20260905000126 75 0.0 0.0 0.00 0.00 0.00 52 1015.0
20260904235626 75 0.0 0.0 0.00 0.00 0.00 52 1014.9
20260904235126 75 0.0 0.0 0.00 0.00 0.00 52 1015.1
20260904234626 75 0.0 0.0 0.00 0.00 0.00 52 1014.8
20260904234126 75 0.0 0.0 0.00 0.00 0.00 52 1014.8
20260904233626 75 0.0 0.0 0.00 0.00 0.00 52 1014.1
20260904233126 75 0.0 0.0 0.00 0.00 0.00 52 1014.5
20260904232626 75 0.0 0.0 0.00 0.00 0.00 52 1014.6
20260904232126 75 0.0 0.0 0.00 0.00 0.00 52 1014.5
20260904231626 75 0.0 0.0 0.00 0.00 0.00 51 1014.0
20260904231126 75 0.0 0.0 0.00 0.00 0.00 52 1014.4
20260904230626 75 0.0 0.0 0.00 0.00 0.00 52 1014.4
20260904230126 75 0.0 0.0 0.00 0.00 0.00 52 1014.4
20260904225626 75 0.0 0.0 0.00 0.00 0.00 51 1014.1
20260904225126 75 0.0 0.0 0.00 0.00 0.00 52 1014.0
20260904224626 75 0.0 0.0 0.00 0.00 0.00 51 1013.8
20260904224126 75 0.0 0.0 0.00 0.00 0.00 51 1013.8
20260904223626 75 0.0 0.0 0.00 0.00 0.00 51 1014.0
20260904223126 76 0.0 0.0 0.00 0.00 0.00 51 1014.0
20260904222626 76 0.0 0.0 0.00 0.00 0.00 51 1014.4
20260904222126 76 0.0 0.0 0.00 0.00 0.00 51 1013.8
20260904221626 76 0.0 0.0 0.00 0.00 0.00 51 1013.8
20260904221126 76 0.0 0.0 0.00 0.00 0.00 51 1013.7
20260904220626 76 0.0 0.0 0.00 0.00 0.00 51 1013.8
20260904220126 76 0.0 0.0 0.00 0.00 0.00 51 1013.9
20260904215626 76 0.0 0.0 0.00 0.00 0.00 51 1014.3
20260904215126 76 0.0 0.0 0.00 0.00 0.00 51 1013.8
20260904214626 76 0.0 0.0 0.00 0.00 0.00 51 1014.1
20260904214126 76 0.0 0.0 0.00 0.00 0.00 50 1013.7
20260904213626 76 0.0 0.0 0.00 0.00 0.00 51 1013.5
20260904213126 76 0.0 0.0 0.00 0.00 0.00 51 1013.8
20260904212626 76 0.0 0.0 0.00 0.00 0.00 51 1013.8
20260904212126 76 0.0 0.0 0.00 0.00 0.00 51 1013.7
20260904211626 76 0.0 0.0 0.00 0.00 0.00 51 1013.9
20260904211126 76 0.0 0.0 0.00 0.00 0.00 51 1013.9
20260904210626 76 0.0 0.0 0.00 0.00 0.00 51 1013.9
20260904210136 76 0.0 0.0 0.00 0.00 0.00 50 1013.6
20260904205626 76 0.0 0.0 0.00 0.00 0.00 51 1013.9
20260904205126 76 0.0 0.0 0.00 0.00 0.00 51 1013.8
20260904204626 76 0.0 0.0 0.00 0.00 0.00 51 1013.8
20260904204126 76 0.0 0.0 0.00 0.00 0.00 51 1013.9
20260904203626 76 0.0 0.0 0.00 0.00 0.00 51 1013.9
20260904203126 76 0.0 0.0 0.00 0.00 0.00 51 1013.8
20260904202626 75 0.0 0.0 0.00 0.00 0.00 51 1013.7
20260904202126 75 0.0 0.0 0.00 0.00 0.00 52 1014.2
20260904201626 75 0.0 0.0 0.00 0.00 0.00 51 1013.8
20260904201126 75 0.0 0.0 0.00 0.00 0.00 51 1014.3
20260904200626 75 0.0 0.0 0.00 0.00 0.00 51 1014.2
20260904200126 75 0.0 0.0 0.00 0.00 0.00 51 1014.1
20260904195626 75 0.0 0.0 0.00 0.00 0.00 52 1013.8
20260904195127 75 0.0 0.0 0.00 0.00 0.00 51 1013.7
20260904194626 75 0.0 0.0 0.00 0.00 0.00 50 1013.6
20260904194126 76 0.0 0.0 0.00 0.00 0.00 50 1013.6
20260904193626 76 0.0 0.0 0.00 0.00 0.00 50 1013.4
20260904193126 75 0.0 0.0 0.00 0.00 0.00 50 1013.9
20260904192626 76 0.0 0.0 0.00 0.00 0.00 50 1013.5
20260904192126 75 0.0 0.0 0.00 0.00 0.00 51 1013.3
20260904191626 75 0.0 0.0 0.00 0.00 0.00 51 1013.2
20260904191126 75 0.0 0.0 0.00 0.00 0.00 52 1013.1
20260904190626 75 0.0 0.0 0.00 0.00 0.00 53 1013.1
20260904190126 76 0.0 0.0 0.00 0.00 0.00 53 1012.8
20260904185626 75 0.0 0.0 0.00 0.00 0.00 54 1012.6
20260904185126 76 0.0 0.0 0.00 0.00 0.00 54 1012.7
20260904184626 75 0.0 0.0 0.00 0.00 0.00 54 1012.8
20260904184126 75 0.0 0.0 0.00 0.00 0.00 54 1012.8
20260904183626 76 0.0 0.0 0.00 0.00 0.00 53 1012.4
20260904183126 76 0.0 0.0 0.00 0.00 0.00 52 1012.1
20260904182626 76 0.0 0.0 0.00 0.00 0.00 53 1010.9
20260904182126 76 0.0 0.0 0.00 0.00 0.00 52 1010.9
20260904181626 76 0.0 0.0 0.00 0.00 0.00 52 1010.5
20260904181126 76 0.0 0.0 0.00 0.00 0.00 52 1010.7
20260904180626 76 0.0 0.0 0.00 0.00 0.00 52 1010.7
20260904180126 76 0.0 0.0 0.00 0.00 0.00 51 1010.3
20260904175626 76 0.0 0.0 0.00 0.00 0.00 52 1010.2
20260904174857 74 0.0 0.0 0.00 0.00 0.00 69 813.7
20260904174357 74 0.0 0.0 0.00 0.00 0.00 69 813.7
20260904173857 74 0.0 0.0 0.00 0.00 0.00 69 813.7
20260904173357 74 0.0 0.0 0.00 0.00 0.00 69 813.7
20260904172857 74 0.0 0.0 0.00 0.00 0.00 69 813.7
20260904172357 74 0.0 0.0 0.00 0.00 0.00 69 813.7
20260904171857 74 0.0 0.0 0.00 0.00 0.00 69 813.7
20260904171357 74 0.0 0.0 0.00 0.00 0.00 69 813.7
20260904170857 74 0.0 0.0 0.00 0.00 0.00 69 813.7
20260904170357 74 0.0 0.0 0.00 0.00 0.00 69 813.7
20260904165857 74 0.0 0.0 0.00 0.00 0.00 69 813.7
20260904165358 74 0.0 0.0 0.00 0.00 0.00 69 813.7
20260904164857 74 0.0 0.0 0.00 0.00 0.00 69 813.7
20260904164357 74 0.0 0.0 0.00 0.00 0.00 69 813.7
20260904163831 74 0.0 0.0 0.00 0.00 0.00 69 813.7
20260904163330 74 0.0 0.0 0.00 0.00 0.00 69 813.7
20260904162830 74 0.0 0.0 0.00 0.00 0.00 69 813.7
20260904162330 74 0.0 0.0 0.00 0.00 0.00 69 813.7
20260904161830 74 0.0 0.0 0.00 0.00 0.00 69 813.7
20260904161330 74 0.0 0.0 0.00 0.00 0.00 69 813.7